Regional Weather Roundup
Issued by NWS

Home | Current Version | Previous Version | Graphics & Text | Print | Product List | Glossary On
Versions: 1 2 3 4 5 6 7 8 9 10 11 12 13 14 15 16 17 18 19 20 21 22 23 24 25 26 27 28 29 30 31 32 33 34 35 36 37 38 39 40 41 42 43 44 45 46 47 48 49 50
000
ASUS43 KMKX 250721
RWRWI

WISCONSIN REGIONAL WEATHER ROUNDUP
NATIONAL WEATHER SERVICE MILWAUKEE/SULLIVAN WI
200 AM CDT SUN SEP 25 2016

NOTE: "FAIR" INDICATES FEW OR NO CLOUDS BELOW 12,000 FEET WITH NO
SIGNIFICANT WEATHER AND/OR OBSTRUCTIONS TO VISIBILITY.

WIZ001-002-006>008-014>016-023>028-250800-
NORTHWEST WISCONSIN

CITY           SKY/WX    TMP DP  RH WIND       PRES   REMARKS
SUPERIOR ARPT  CLOUDY    62  60  93 CALM      29.98S
ASHLAND        PTCLDY    61  56  83 VRB5      30.02F
HAYWARD        CLOUDY    63  57  81 S7G17     30.02F
SIREN          CLOUDY    64  60  87 S10       29.98S
CUMBERLAND     CLOUDY    61  59  94 SE9       30.01F
RICE LAKE      CLOUDY    63  58  86 SE12      30.03F
CHETEK         NOT AVBL
LADYSMITH      CLOUDY    61  57  86 SE9       30.07F
EAU CLAIRE     CLOUDY    63  61  93 SE8       30.01F
MENOMONIE      CLOUDY    64  60  88 E7        30.01F
NEW RICHMOND   CLOUDY    65  63  92 SE8       29.97F
OSCEOLA        CLOUDY    66  66 100 SE9       29.99F
$$

WIZ003>005-009-010-017-018-250800-
NORTH CENTRAL WISCONSIN

CITY           SKY/WX    TMP DP  RH WIND       PRES   REMARKS
MANITOWISH WTR NOT AVBL
ARBOR VITAE    CLOUDY    59  55  85 SE8       30.11S
WOODRUFF       CLOUDY    59  55  85 SE8       30.11S
RHINELANDER    CLOUDY    58  54  86 SE8       30.13S
EAGLE RIVER    CLOUDY    56  50  79 S6        30.11F
LAND O LAKES   CLOUDY    56  51  85 SE6       30.13F
PHILLIPS       CLOUDY    57  55  93 SE7       30.08F
TOMAHAWK       MOCLDY    56  53  88 CALM      30.12F
MEDFORD        CLOUDY    58  58 100 SE10G20   30.09F
MERRILL        PTCLDY    56  55  96 SE5       30.13S
$$

WIZ029-030-035-036-043>047-250800-
CENTRAL WISCONSIN

CITY           SKY/WX    TMP DP  RH WIND       PRES   REMARKS
WAUSAU         PTCLDY    56  54  93 SE8       30.11F
MOSINEE        PTCLDY    54  54 100 E7        30.13F
MARSHFIELD     CLOUDY    58  55  90 SE8       30.09F
STEVENS POINT  PTCLDY    55  55 100 E6        30.12F
WAUPACA        PTCLDY    58  57  97 CALM      30.13F
WAUTOMA        CLEAR     57  56  96 CALM      30.12F
WISC RAPIDS    PTCLDY    58  57  97 SE5       30.11F
CAMP DOUGLAS   PTCLDY    61  61 100 SE9       30.08F
$$

WIZ011>013-019>022-031-037>040-048>050-250800-
NORTHEAST WISCONSIN

CITY           SKY/WX    TMP DP  RH WIND       PRES   REMARKS
ANTIGO         CLOUDY    55  53  93 CALM      30.14F
SHAWANO        CLOUDY    60  55  85 CALM      30.14F
OCONTO         NOT AVBL
STURGEON BAY   CLOUDY    61  56  83 SE7       30.17R
GREEN BAY      CLOUDY    58  56  93 E5        30.14F
MANITOWOC      CLOUDY    64  57  78 SE10      30.15S
APPLETON       CLEAR     59  52  77 E5        30.12S
CLINTONVILLE   NOT AVBL
OSHKOSH        CLEAR     61  57  87 SE6       30.12F
$$

WIZ032>034-041-042-053>061-250800-
SOUTHWEST WISCONSIN

CITY           SKY/WX    TMP DP  RH WIND       PRES   REMARKS
LA CROSSE      CLOUDY    67  63  87 SE8       30.03F
SPARTA         CLOUDY    63  62  96 E5        30.07S
VIROQUA        CLOUDY    63  63 100 SE10G17   30.07S
BOSCOBEL       MOCLDY    64  62  93 N5        30.07F
PRAIRIE DU CHI CLOUDY    65  62  89 SE6       30.04F
PLATTEVILLE    PTCLDY    63  63 100 E12       30.07F
$$

WIZ056-057-062-063-064-067-068-250800-
SOUTH CENTRAL WISCONSIN

CITY           SKY/WX    TMP DP  RH WIND       PRES   REMARKS
REEDSBURG      NOT AVBL
BARABOO/DELLS  CLOUDY    60  58  94 SE3       30.10F
LONE ROCK      CLOUDY    63  61  93 E8        30.09F
MINERAL POINT  CLOUDY    64  63  94 SE12      30.09F
MADISON        CLOUDY    61  59  93 SE5       30.11F
MIDDLETON      CLOUDY    64  64 100 SE6       30.11F
WATERTOWN      CLEAR     60  60 100 E3        30.11F
MONROE         CLOUDY    61  61 100 E6        30.10S FOG
JANESVILLE     PTCLDY    63  63 100 E3        30.10S
$$

WIZ051-052-058>065-066-070>072-250800-
SOUTHEAST WISCONSIN

CITY           SKY/WX    TMP DP  RH WIND       PRES   REMARKS
MILWAUKEE      CLEAR     66  61  84 SE7       30.13S
WAUKESHA       CLEAR     61  59  94 E6        30.14F
MILWAUKEE/TIMM CLEAR     64  57  77 E5        30.14S
RACINE         CLEAR     67  61  81 SE7       30.14S
BURLINGTON     CLEAR     56  56  99 CALM      30.12F FOG
KENOSHA        CLEAR     67  62  84 SE8       30.13S
FOND DU LAC    CLEAR     61  57  87 SE6       30.12F
SHEBOYGAN      CLOUDY    63  58  83 SE5       30.14F
WEST BEND      CLEAR     57  55  94 CALM      30.14F
JUNEAU         CLEAR     60  58  93 E7        30.13F
$$

LSZ147-162-250800-
LAKE SUPERIOR

STATION/POSITION TIME  TEMP    WIND        PRES    WAVE
                       AIR SEA DIR/SP/G            HT/PER
                 (UTC) (F)     (DEG/KT/KT) (MB)    (FT/S)
W MID LAKE BUOY  0650   63 62  140/ 12/ 14 1017.1F   2/ 5
DEVILS ISLAND    0700   63     140/  7/  9 1016.6F
SAXON HARBOR     0600   63     200/  5/  8 1016.6F
$$

LMZ867-665-643>646-250800-
LAKE MICHIGAN

STATION/POSITION TIME  TEMP    WIND        PRES    WAVE
                       AIR SEA DIR/SP/G            HT/PER
                 (UTC) (F)     (DEG/KT/KT) (MB)    (FT/S)
CHAMBERS ISLAND  0600   58     130/  2/  4 1020.7F
S GREEN BAY BUOY 0700   64 66  120/  6/  8 1020.1F
N MID LAKE BUOY  0650   62 67  160/ 16/ 17 1021.4R   2/ 3
NORTHPORT PIER   0600   65     150/ 11/ 14 1021.0F
KEWAUNEE LAKESHO 0600   65     140/  9/ 12 1020.5F
SHEBOYGAN LAKESH 0700   65     130/ 11/ 12 1020.3S
PORT WASHINGTON  0640   63     160/  1/  2 1021.3S
ATWATER BUOY     0700   63 62  160/  2/  4 1020.4F
MILWAUKEE LAKESH 0610   64     170/  1/  2   N/A
S MID LAKE BUOY  0650   68 72  130/ 16/ 19 1019.9F   3/ 4
KENOSHA   LAKESH 0700   66     180/  6/  8 1020.0R
$$

TC  - TEMPERATURE IN CELSIUS
VSB - VISIBILITY IN STATUTE MILES
WCI - WIND CHILL INDEX
HX  - HEAT INDEX





USA.gov is the U.S. government's official web portal to all federal, state and local government web resources and services.